Location: Unspecified
(0.0000°N, 0.0000°E)
Time: 03:12:12
(UTC+00:00)

X-37B - Visible Passes

Search period start: 15 June 2021 00:00
Search period end: 25 June 2021 00:00
Orbit: 386 x 389 km, 45.0° (Epoch: 10 June)

Date Brightness Start Highest point End Pass type
(mag) Time Alt. Az. Time Alt. Az. Time Alt. Az.
19 Jun 0.6 19:26:08 10° SW 19:29:19 79° NW 19:29:20 79° NW visible
20 Jun 1.4 18:28:07 10° SSW 18:31:00 31° SE 18:33:51 10° ENE visible
21 Jun 3.1 19:06:29 10° WSW 19:09:09 24° NW 19:11:48 10° N visible
24 Jun 3.5 04:40:57 10° N 04:43:19 19° NE 04:45:41 10° E visible
